Regional Weather Roundup
Issued by NWS

Home | Current Version | Previous Version | Text Only | Print | Product List | Glossary On
Versions: 1 2 3 4 5 6 7 8 9 10 11 12 13 14 15 16 17 18 19 20 21 22 23 24 25 26 27 28 29 30 31 32 33 34 35 36 37 38 39 40 41 42 43 44 45 46 47 48 49 50
246
ASUS43 KOAX 081402
RWRNE

WEATHER ROUNDUP FOR NEBRASKA
NATIONAL WEATHER SERVICE OMAHA NE
800 AM CST MON FEB 08 2016

NOTES: SATELLITE DATA IS BEING USED TO AUGMENT CLOUD COVER ABOVE
       12000 FEET.
       "FAIR" INDICATES FEW OR NO CLOUDS BELOW 12,000 FEET WITH NO
       SIGNIFICANT WEATHER AND/OR OBSTRUCTIONS TO VISIBILITY.

  * THESE STATIONS DO NOT REPORT WEATHER SUCH AS RAIN...SNOW OR FOG.

NEZ001>004-019>022-054>056-081500-
NEBRASKA PANHANDLE

CITY           SKY/WX    TMP DP  RH WIND       PRES   REMARKS
SCOTTSBLUFF    CLOUDY    23  12  62 W13       30.37S WCI  11
ALLIANCE       CLOUDY    17   9  70 W12       30.32R WCI   4
CHADRON        CLOUDY    27  13  55 NW18      30.37S WCI  14
SIDNEY         CLOUDY    20  10  65 NW15      30.33R WCI   6
$$

NEZ057>060-069>072-079>082-081500-
SOUTHWEST NEBRASKA

CITY           SKY/WX    TMP DP  RH WIND       PRES   REMARKS
NORTH PLATTE   CLEAR     21  12  68 NW15      30.29R WCI   8
IMPERIAL       CLEAR     25  10  53 NW17G25   30.32S WCI  12
MCCOOK         CLEAR     24  13  62 NW18      30.31R WCI  10
$$

NEZ005>010-023>029-035>040-094-081500-
NORTH CENTRAL NEBRASKA

CITY           SKY/WX    TMP DP  RH WIND       PRES   REMARKS
VALENTINE      CLEAR     24  15  68 NW20G26   30.27R WCI  10
AINSWORTH      CLEAR     25  16  66 NW25G33   30.23S WCI  10
BROKEN BOW     CLEAR     26  15  63 NW29G39   30.21R WCI  10
ORD            CLEAR     25  16  68 NW26G36   30.18R WCI   9
$$

NEZ041-046>049-061>064-073>077-083>087-081500-
SOUTH CENTRAL NEBRASKA

CITY           SKY/WX    TMP DP  RH WIND       PRES   REMARKS
GRAND ISLAND   CLEAR     26  16  65 NW31G38   30.17R WCI   9
HASTINGS       CLEAR     27  16  63 NW25      30.17R WCI  12
HEBRON         CLOUDY    30  19  63 N31G38    30.15S WCI  14
$$

NEZ011>018-030>034-042>045-081500-
NORTHEAST NEBRASKA

CITY           SKY/WX    TMP DP  RH WIND       PRES   REMARKS
NORFOLK        CLOUDY    27  16  63 N35G45    30.09R WCI  10
BLAIR          CLOUDY    27  20  75 NW29G43   30.02R WCI  11
COLUMBUS *     CLOUDY    27  12  54 NW24G31   30.10R WCI  12
FREMONT        CLOUDY    28  18  65 NW28G39   30.07R WCI  12
TEKAMAH        MIX PCPN  28  17  63 NW35G47   30.05S WCI  11
$$

NEZ050>053-065>068-078-088>093-081500-
SOUTHEAST NEBRASKA

CITY           SKY/WX    TMP DP  RH WIND       PRES   REMARKS
LINCOLN        CLOUDY    29  18  63 N28G44    30.11R WCI  14
OMAHA EPPLEY   FLURRIES  27  19  72 NW29G43   30.02S WCI  11
BEATRICE       CLOUDY    29  21  71 N17       30.11S WCI  17
FALLS CITY     CLOUDY    30  19  63 NW26G45   30.04R WCI  16
NEBRASKA CITY  FLURRIES  28  20  72 N25G32    30.04R WCI  14
$$

NEZ044-045-051>053-067-081500-
OMAHA AREA

CITY           SKY/WX    TMP DP  RH WIND       PRES   REMARKS
OMAHA EPPLEY   FLURRIES  27  19  72 NW29G43   30.02S WCI  11
BLAIR          CLOUDY    27  20  75 NW29G43   30.02R WCI  11
FREMONT        CLOUDY    28  18  65 NW28G39   30.07R WCI  12
OFFUTT AFB     FLURRIES  28  19  70 NW25G33   30.04R WCI  13
WAHOO          LGT SNOW  28  22  77 NW20G29   30.07S WCI  15
$$




USA.gov is the U.S. government's official web portal to all federal, state and local government web resources and services.